This is the latest recevied weather packets stored in our database for station/object PA2JOK. If no packets are shown the sender has not sent any weather packets the latest 10 day(s).
| Time | Temp. | Humidity | Pressure | Rain* | Wind** | Luminosity | Snow |
|---|---|---|---|---|---|---|---|
| 1777802583 | 16.11° C | 81% | 1009.8 hPa | 0 mm | - | - | - |
| 1777801683 | 16.67° C | 79% | 1009.9 hPa | 0 mm | - | - | - |
| 1777800783 | 17.22° C | 77% | 1009.8 hPa | 0 mm | - | - | - |
| 1777799882 | 17.22° C | 77% | 1009.7 hPa | 0 mm | - | - | - |
| 1777798982 | 17.22° C | 78% | 1009.6 hPa | 0 mm | - | - | - |
| 1777798083 | 16.67° C | 79% | 1009.6 hPa | 0 mm | - | - | - |
| 1777797183 | 16.67° C | 80% | 1009.5 hPa | 0 mm | - | - | - |
| 1777796282 | 16.67° C | 81% | 1009.5 hPa | 0 mm | - | - | - |
| 1777795382 | 16.67° C | 81% | 1009.4 hPa | 0 mm | - | - | - |
| 1777794482 | 16.11° C | 82% | 1009.4 hPa | 0 mm | - | - | - |
| 1777793583 | 16.11° C | 84% | 1009.2 hPa | 0 mm | - | - | - |
| 1777792682 | 15.56° C | 86% | 1009 hPa | 0 mm | - | - | - |
| 1777791783 | 15° C | 87% | 1009 hPa | 0 mm | - | - | - |
| 1777790883 | 15° C | 87% | 1009.1 hPa | 0 mm | - | - | - |
| 1777789983 | 14.44° C | 88% | 1009.2 hPa | 0 mm | - | - | - |
| 1777789082 | 14.44° C | 89% | 1009.1 hPa | 0 mm | - | - | - |
| 1777788183 | 13.89° C | 89% | 1009.1 hPa | 0 mm | - | - | - |
| 1777787283 | 13.89° C | 89% | 1009.3 hPa | 0 mm | - | - | - |
| 1777786383 | 13.89° C | 89% | 1009.4 hPa | 0 mm | - | - | - |
| 1777785482 | 13.89° C | 89% | 1009.3 hPa | 0 mm | - | - | - |
| 1777784583 | 13.89° C | 89% | 1009.3 hPa | 0 mm | - | - | - |
| 1777783683 | 13.89° C | 89% | 1009.1 hPa | 0 mm | - | - | - |
| 1777782783 | 13.33° C | 89% | 1009.3 hPa | 0 mm | - | - | - |
| 1777781884 | 13.33° C | 89% | 1009.3 hPa | 0 mm | - | - | - |
| 1777780982 | 13.33° C | 89% | 1009.4 hPa | 0 mm | - | - | - |
* Rain latest hour (hover to see other rain measurements)
** Current wind speed in m/s (hover to see current wind gust speed)